Starlink 30908

operational
NORAD ID: 58424 Int'l Des: 2023-180 Owner: SPXS Country: US Constellation: starlink
LEOCIRCULAR

Über Starlink 30908

Beschreibung wird geladen...

Live-Position

3D-Globus wird geladen...

Nächste Überflüge

Höhenverlauf

Altitude vs Time

uPlot chart will show altitude changes over time

Zweizeiliger Elementsatz

1 58424U 23180Y 25353.68931036 .00000644 00000-0 62708-4 0 9992
2 58424 43.0024 129.5482 0000929 252.3018 107.7723 15.02533972115562
Epoch: 19. Dez. 2025 • Age: 23 hours

Aktueller Status

Höhe 562.3 km
Geschwindigkeit 7.59 km/s
Subsatellitenpunkt 40.91°N, 82.89°W
Startdatum 22. Nov. 2023
Alter 2 years
Typ internet

Technische Details

Klassifizierung Payload
Masse 730.00 kg
Trockenmasse 700.00 kg
Gesamtmasse 730.00 kg
Länge 0.30 m
Durchmesser 4.10 m
Spannweite 29.00 m
Form Box + pan
Hersteller SPXS
Bus-Typ Starlink V2M
Phasenstatus In Orbit
Besitzer/Staat SPXS/US

Große Konstellationen

Loading constellations...